Voltar ao catálogo

CZ-6A DEB

AtivoPO
NORAD 61816·DEBRIS·🇨🇳 China

Lançado Aug 6, 2024 de Taiyuan Satellite Launch Center

Loading…

Próximas Passagens (próximas 24 horas)

TLE

AtualizadoSource: Space-Track

Época: Sep 14, 2026, 00:46 UTC

1 61816U 24140ACG 26257.03220408  .00001926  00000-0  71114-3 0  9999
2 61816  89.1522 277.6357 0060580 290.9459  68.5260 14.31134466104909

Acompanhe CZ-6A DEB em tempo real com AllMySat

Download on the App Store